Location: Barnston
(51.8500°N, 0.4000°E)
Time: 11:54:01
(UTC+00:00)

IDEFIX/ARIANE 42P - Pass Details

Date: 26 September 2023
Orbit: 782 x 801 km, 98.5° (Epoch: 10 December)

Event Time Altitude Azimuth Distance (km) Brightness Sun altitude
Rises 01:08:12 0° 21° (NNE) 3,325 6.8 -36.6°
Reaches altitude 10° 01:10:47 10° 31° (NNE) 2,391 5.8 -36.5°
Enters shadow 01:13:50 27° 60° (ENE) 1,506 4.3 -36.3°
